Вернуться в каталог

USA 93

АктивенВоенныеGEO
NORAD 22719·PAYLOAD·🇺🇸 United States

Запущен Jul 19, 1993 с Cape Canaveral Space Force Station

Loading…

TLE

СвежийSource: Space-Track

Эпоха: Sep 14, 2026, 04:13 UTC

1 22719U 93046A   26257.17636387 -.00000308  00000-0  00000-0 0  9998
2 22719  13.9844  13.5042 0000771 136.5173  52.8929  0.99053346 26077

Отслеживайте USA 93 в реальном времени с AllMySat

Download on the App Store